• In India
  • List of Countries
  • For 7 days
  • Water Temperature
  • Satellite Maps
  • Weather Map
  • Weather Widgets
  • user-avatar
    Login

    Hourly Weather Mayrhofen

    Today, 23 June, Saturday

    Time Temperature Precipitation Wind Pressure Humidity
    00:00 +3°C° 0 mm 2 mps 621 mmHg 90%
    01:00 +2°C° 0 mm 2 mps 621 mmHg 91%
    02:00 +2°C° 0 mm 2 mps 621 mmHg 91%
    03:00 +1°C° 0 mm 2 mps 621 mmHg 92%
    04:00 +1°C° 0 mm 2 mps 620 mmHg 92%
    05:00 +3°C° 0 mm 1 mps 621 mmHg 85%
    06:00 +5°C° 0 mm 1 mps 621 mmHg 78%
    07:00 +6°C° 0 mm 1 mps 621 mmHg 71%
    08:00 +8°C° 0 mm 1 mps 622 mmHg 62%
    09:00 +9°C° 0 mm 2 mps 623 mmHg 52%
    10:00 +12°C° 0 mm 2 mps 623 mmHg 43%
    11:00 +13°C° 0 mm 2 mps 623 mmHg 42%
    12:00 +13°C° 0 mm 3 mps 623 mmHg 40%
    13:00 +14°C° 0 mm 3 mps 623 mmHg 38%
    14:00 +13°C° 0 mm 3 mps 623 mmHg 42%
    15:00 +13°C° 0 mm 3 mps 623 mmHg 45%
    16:00 +12°C° 0 mm 3 mps 622 mmHg 49%
    17:00 +11°C° 0.1 mm 3 mps 622 mmHg 58%
    18:00 +10°C° 0.1 mm 3 mps 621 mmHg 67%
    19:00 +8°C° 0.1 mm 2 mps 621 mmHg 76%
    20:00 +7°C° 0.1 mm 2 mps 621 mmHg 82%
    21:00 +6°C° 0.1 mm 2 mps 621 mmHg 87%
    22:00 +6°C° 0.1 mm 1 mps 621 mmHg 93%
    23:00 +5°C° 0 mm 1 mps 620 mmHg 93%

    Tomorrow, 24 June, Sunday

    Time Temperature Precipitation Wind Pressure Humidity
    00:00 +5°C° 0 mm 1 mps 620 mmHg 94%
    01:00 +4°C° 0 mm 1 mps 620 mmHg 94%
    02:00 +4°C° 0 mm 1 mps 620 mmHg 94%
    03:00 +4°C° 0 mm 1 mps 619 mmHg 94%
    04:00 +4°C° 0 mm 1 mps 619 mmHg 94%
    05:00 +5°C° 0 mm 1 mps 619 mmHg 89%
    06:00 +6°C° 0 mm 1 mps 620 mmHg 83%
    07:00 +8°C° 0 mm 1 mps 620 mmHg 77%
    08:00 +9°C° 0.2 mm 1 mps 620 mmHg 75%
    09:00 +8°C° 0.2 mm 2 mps 621 mmHg 73%
    10:00 +9°C° 0.2 mm 2 mps 621 mmHg 70%
    11:00 +10°C° 0.6 mm 2 mps 621 mmHg 70%
    12:00 +10°C° 0.6 mm 2 mps 621 mmHg 69%
    13:00 +10°C° 0.6 mm 2 mps 621 mmHg 69%
    14:00 +10°C° 0.5 mm 2 mps 620 mmHg 71%
    15:00 +10°C° 0.5 mm 2 mps 620 mmHg 73%
    16:00 +9°C° 0.5 mm 2 mps 620 mmHg 75%
    17:00 +9°C° 0.3 mm 2 mps 620 mmHg 78%
    18:00 +8°C° 0.3 mm 2 mps 619 mmHg 82%
    19:00 +8°C° 0.3 mm 2 mps 619 mmHg 86%
    20:00 +7°C° 0.1 mm 2 mps 619 mmHg 89%
    21:00 +7°C° 0.1 mm 1 mps 619 mmHg 92%
    22:00 +6°C° 0.1 mm 1 mps 619 mmHg 95%
    23:00 +6°C° 0 mm 1 mps 619 mmHg 95%

    Day after tomorrow, 25 June, Monday

    Time Temperature Precipitation Wind Pressure Humidity
    00:00 +5°C° 0 mm 1 mps 619 mmHg 96%
    01:00 +5°C° 0 mm 1 mps 619 mmHg 96%
    02:00 +4°C° 0 mm 1 mps 619 mmHg 96%
    03:00 +4°C° 0 mm 1 mps 618 mmHg 96%
    04:00 +4°C° 0 mm 1 mps 618 mmHg 95%
    05:00 +5°C° 0 mm 1 mps 619 mmHg 92%
    06:00 +6°C° 0 mm 1 mps 619 mmHg 88%
    07:00 +8°C° 0 mm 1 mps 620 mmHg 84%
    08:00 +8°C° 0.1 mm 2 mps 620 mmHg 79%
    09:00 +9°C° 0.1 mm 2 mps 621 mmHg 74%
    10:00 +10°C° 0.1 mm 2 mps 621 mmHg 69%
    11:00 +12°C° 0.1 mm 2 mps 622 mmHg 66%
    12:00 +13°C° 0.1 mm 2 mps 622 mmHg 63%
    13:00 +14°C° 0.1 mm 2 mps 622 mmHg 61%
    14:00 +14°C° 0.1 mm 2 mps 622 mmHg 60%
    15:00 +13°C° 0.1 mm 3 mps 622 mmHg 60%
    16:00 +13°C° 0.1 mm 3 mps 622 mmHg 60%
    17:00 +13°C° 0.1 mm 2 mps 622 mmHg 67%
    18:00 +12°C° 0.1 mm 2 mps 622 mmHg 73%
    19:00 +10°C° 0.1 mm 2 mps 622 mmHg 80%
    20:00 +8°C° 0.1 mm 2 mps 622 mmHg 85%
    21:00 +7°C° 0.1 mm 2 mps 621 mmHg 90%
    22:00 +6°C° 0.1 mm 1 mps 621 mmHg 95%
    23:00 +6°C° 0 mm 1 mps 621 mmHg 95%

    26 June, Tuesday

    Time Temperature Precipitation Wind Pressure Humidity
    00:00 +5°C° 0 mm 1 mps 621 mmHg 96%
    01:00 +5°C° 0 mm 1 mps 621 mmHg 96%
    02:00 +4°C° 0 mm 1 mps 620 mmHg 95%
    03:00 +4°C° 0 mm 1 mps 620 mmHg 94%
    04:00 +3°C° 0 mm 1 mps 620 mmHg 93%
    05:00 +5°C° 0 mm 1 mps 620 mmHg 84%
    06:00 +7°C° 0 mm 1 mps 621 mmHg 76%
    07:00 +10°C° 0 mm 1 mps 622 mmHg 68%
    08:00 +11°C° 0 mm 1 mps 623 mmHg 59%
    09:00 +13°C° 0 mm 2 mps 623 mmHg 50%
    10:00 +15°C° 0 mm 2 mps 624 mmHg 41%
    11:00 +16°C° 0 mm 2 mps 624 mmHg 40%
    12:00 +17°C° 0 mm 2 mps 624 mmHg 39%
    13:00 +18°C° 0 mm 3 mps 624 mmHg 38%
    14:00 +18°C° 0 mm 3 mps 624 mmHg 41%
    15:00 +18°C° 0 mm 3 mps 624 mmHg 44%
    16:00 +17°C° 0 mm 3 mps 624 mmHg 47%
    17:00 +16°C° 0 mm 3 mps 624 mmHg 56%
    18:00 +15°C° 0 mm 2 mps 623 mmHg 65%
    19:00 +13°C° 0 mm 2 mps 623 mmHg 74%
    20:00 +10°C° 0 mm 2 mps 623 mmHg 81%
    21:00 +9°C° 0 mm 1 mps 622 mmHg 89%
    22:00 +7°C° 0 mm 1 mps 621 mmHg 96%
    23:00 +7°C° 0 mm 1 mps 621 mmHg 96%

    27 June, Wednesday

    Time Temperature Precipitation Wind Pressure Humidity
    00:00 +7°C° 0 mm 1 mps 621 mmHg 96%
    01:00 +7°C° 0 mm 1 mps 621 mmHg 96%
    02:00 +7°C° 0 mm 1 mps 621 mmHg 96%
    03:00 +6°C° 0 mm 1 mps 621 mmHg 96%
    04:00 +6°C° 0 mm 1 mps 621 mmHg 96%
    05:00 +8°C° 0 mm 1 mps 622 mmHg 90%
    06:00 +9°C° 0 mm 0 mps 622 mmHg 84%
    07:00 +11°C° 0 mm 0 mps 623 mmHg 79%
    08:00 +14°C° 0 mm 1 mps 624 mmHg 68%
    09:00 +16°C° 0 mm 1 mps 624 mmHg 58%
    10:00 +18°C° 0 mm 1 mps 625 mmHg 47%
    11:00 +19°C° 0 mm 1 mps 625 mmHg 45%
    12:00 +19°C° 0 mm 2 mps 625 mmHg 42%
    13:00 +20°C° 0 mm 2 mps 625 mmHg 40%
    14:00 +19°C° 0 mm 2 mps 625 mmHg 43%
    15:00 +19°C° 0 mm 3 mps 624 mmHg 45%
    16:00 +19°C° 0 mm 3 mps 624 mmHg 48%
    17:00 +18°C° 0.1 mm 2 mps 624 mmHg 56%
    18:00 +16°C° 0.1 mm 2 mps 624 mmHg 64%
    19:00 +15°C° 0.1 mm 2 mps 623 mmHg 73%
    20:00 +13°C° 0.1 mm 1 mps 623 mmHg 80%
    21:00 +12°C° 0.1 mm 1 mps 622 mmHg 87%
    22:00 +9°C° 0.1 mm 0 mps 622 mmHg 94%
    23:00 +9°C° 0 mm 1 mps 622 mmHg 95%

    28 June, Thursday

    Time Temperature Precipitation Wind Pressure Humidity
    00:00 +9°C° 0 mm 1 mps 622 mmHg 95%
    01:00 +9°C° 0 mm 1 mps 621 mmHg 95%
    02:00 +8°C° 0 mm 1 mps 621 mmHg 96%
    03:00 +8°C° 0 mm 1 mps 621 mmHg 96%
    04:00 +7°C° 0 mm 1 mps 621 mmHg 96%
    05:00 +9°C° 0 mm 1 mps 621 mmHg 90%
    06:00 +11°C° 0 mm 1 mps 622 mmHg 84%
    07:00 +13°C° 0 mm 1 mps 623 mmHg 78%
    08:00 +15°C° 0 mm 1 mps 623 mmHg 68%
    09:00 +18°C° 0 mm 1 mps 624 mmHg 58%
    10:00 +18°C° 0 mm 2 mps 624 mmHg 48%
    11:00 +19°C° 0 mm 2 mps 624 mmHg 46%
    12:00 +20°C° 0 mm 2 mps 624 mmHg 44%
    13:00 +20°C° 0 mm 2 mps 624 mmHg 42%
    14:00 +20°C° 0.1 mm 2 mps 624 mmHg 45%
    15:00 +20°C° 0.1 mm 3 mps 624 mmHg 48%
    16:00 +19°C° 0.1 mm 3 mps 624 mmHg 52%
    17:00 +18°C° 0.3 mm 2 mps 623 mmHg 59%
    18:00 +17°C° 0.3 mm 2 mps 623 mmHg 66%
    19:00 +16°C° 0.3 mm 2 mps 623 mmHg 74%
    20:00 +14°C° 0.1 mm 1 mps 622 mmHg 81%
    21:00 +12°C° 0.1 mm 1 mps 622 mmHg 88%
    22:00 +10°C° 0.1 mm 1 mps 621 mmHg 95%
    23:00 +10°C° 0.1 mm 1 mps 621 mmHg 95%
    Show more